Regional Weather Roundup
Issued by NWS Spokane, WA

Home | Current Version | Previous Version | Text Only | Print | Product List | Glossary On
Versions: 1 2 3 4 5 6 7 8 9 10 11 12 13 14 15 16 17 18 19 20 21 22 23 24 25 26 27 28 29 30 31 32 33 34 35 36 37 38 39 40 41 42 43 44 45 46 47 48 49 50
000
NZUS01 KOTX 021810
RWROTX
EASTERN WASHINGTON/NORTHERN IDAHO ROUNDUP
NATIONAL WEATHER SERVICE, SPOKANE WA
1100 AM PDT WED SEP 02 2015

Note: "fair" indicated few or no clouds below 12,000 feet with no
significant weather and/or obstructions to visibility.

...NORTHEAST WASHINGTON AND NORTHERN IDAHO PANHANDLE...

CITY           SKY/WX    TMP DP  RH WIND       PRES   REMARKS
SPOKANE INTL   PTSUNNY   65  41  41 SW21      29.83R
SPOKANE DOWNTO PTSUNNY   65  46  50 SW14G25   29.83R
COEUR D ALENE  PTSUNNY   63  45  51 S18       29.84R
DEER PARK      CLOUDY    65  43  44 SW15      29.82R
SANDPOINT      PTSUNNY   63  43  48 SW13G22   29.81S
BONNERS FERRY  FAIR      59  54  82 SW7       29.78R

...SOUTHEAST WASHINGTON AND SOUTHERN IDAHO PANHANDLE...

CITY           SKY/WX    TMP DP  RH WIND       PRES   REMARKS
WALLA WALLA    LGT RAIN  60  51  72 S9        29.92R
PULLMAN/MOSCOW CLOUDY    60  43  53 VRB7G24   29.91R
LEWISTON       CLOUDY    69  44  40 NW8       29.86R
LOWELL           N/A     70  52  52 N3        29.83F

...COLUMBIA BASIN...

CITY           SKY/WX    TMP DP  RH WIND       PRES   REMARKS
EPHRATA        SUNNY     70  38  31 SW12      29.81R
MOSES LAKE     SUNNY     69  41  36 SW6       29.82S
TRI CITIES     MOSUNNY   71  46  40 SW15      29.86R
HERMISTON      PTSUNNY   66  47  50 SW13      29.88S
PENDLETON      LGT RAIN  59  49  69 CALM      29.91R

...EAST SLOPES CASCADES...

CITY           SKY/WX    TMP DP  RH WIND       PRES   REMARKS
THE DALLES     MOSUNNY   68  49  50 NW17      29.89F
YAKIMA         MOSUNNY   71  41  33 NW8G17    29.86R
ELLENSBURG     SUNNY     66  37  34 NW21G29   29.86S
WENATCHEE      SUNNY     69  36  29 NW14G20   29.82R
OMAK           SUNNY     71  32  23 S20       29.74S

...SOUTHERN BRITISH COLUMBIA...

CITY           SKY/WX    TMP DP  RH WIND       PRES   REMARKS
PENTICTON      PTSUNNY   64  36  34 N9        29.77R
CASTLEGAR      PTSUNNY   66  50  55 S6        29.72S
CRANBROOK      PTSUNNY   57  48  72 S16       29.74S

...WESTERN MONTANA...

CITY           SKY/WX    TMP DP  RH WIND       PRES   REMARKS
MISSOULA       CLOUDY    68  39  34 NW16      29.84R

...NEIGHBORING CITIES...

CITY           SKY/WX    TMP DP  RH WIND       PRES   REMARKS
SEATTLE        MOSUNNY   62  50  64 SW13      29.91S
CALGARY        MOSUNNY   68  41  37 S14G22    29.58S



USA.gov is the U.S. government's official web portal to all federal, state and local government web resources and services.